Flag for Germany Weather past 2 weeks in Braunschweig, Lower Saxony, Germany

Now
37 °F

Passing clouds.


Feels Like: 37 °F
Forecast: 38 / 61 °F
Wind: 2 mph from Northwest

Location: Celle Airport

Current Time: Apr 19, 2015 at 3:21:01 AM

Latest Report: Apr 19, 2015 at 2:20 AM


Visibility: N/A

Pressure: 30.24 "Hg

Humidity: 93%

Dew point: 36 °F

Location of BraunschweigLocation

Historic Weather in Braunschweig — Graph

°F

Braunschweig temperature yesterday

Maximum temperature yesterday: 57 °F (at 4:20 PM)
Minimum temperature yesterday: 34 °F (at 5:20 AM)
Average temperature yesterday: 46 °F

Past Weeks' High & Low Weather Summary

 TemperatureHumidityPressure
High73 °F (Apr 15, 4:20 PM)100% (Apr 4, 2:20 AM)30.57 "Hg (Apr 4, 2:20 AM)
Low28 °F (Apr 4, 2:20 AM)28% (Apr 5, 4:20 PM)29.86 "Hg (Apr 15, 6:20 PM)
Average48 °F66%30.23 "Hg
* Reported Apr 4 1:20 AM — Apr 19 1:20 AM, Braunschweig, Weather by CustomWeather, © 2015

Note: Actual official high and low records may vary slightly from our data, if they occured in-between our weather recording intervals... More about our weather records

Advertising

Braunschweig weather history for previous 24 hours

 ConditionsComfort  
Time TempWeatherWind HumidityBarometerVisibility
1:20 AM
Sun, Apr 19
39 °FPassing clouds.3 mph81%30.24 "HgN/A
12:20 AM39 °FPassing clouds.2 mph75%30.24 "HgN/A
11:20 PM
Sat, Apr 18
43 °FPassing clouds.1 mph71%30.24 "HgN/A
10:20 PM46 °FPassing clouds.6 mph57%30.24 "HgN/A
9:20 PM46 °FScattered clouds.3 mph53%30.24 "HgN/A
8:20 PM52 °FScattered clouds.3 mph41%30.24 "HgN/A
7:20 PM55 °FPassing clouds.7 mph33%30.24 "HgN/A
6:20 PM57 °FPassing clouds.8 mph31%30.24 "HgN/A
5:20 PM57 °FScattered clouds.7 mph33%30.27 "HgN/A
4:20 PM57 °FScattered clouds.8 mph31%30.27 "HgN/A
3:20 PM54 °FScattered clouds.7 mph33%30.30 "HgN/A
2:20 PM55 °FScattered clouds.8 mph33%30.30 "HgN/A
1:20 PM52 °FScattered clouds.6 mph41%30.33 "HgN/A
12:20 PM50 °FScattered clouds.5 mph47%30.33 "HgN/A
11:20 AM48 °FScattered clouds.7 mph54%30.33 "HgN/A
10:20 AM46 °FPassing clouds.7 mph62%30.33 "HgN/A
9:20 AM45 °FPassing clouds.6 mph71%30.33 "HgN/A
8:20 AM41 °FPassing clouds.5 mph76%30.30 "HgN/A
7:20 AM36 °FPassing clouds.2 mph81%30.30 "HgN/A
6:20 AM34 °FPassing clouds.2 mph87%30.27 "HgN/A
5:20 AM34 °FPassing clouds.3 mph87%30.27 "HgN/A
4:20 AM36 °FPassing clouds.2 mph87%30.24 "HgN/A
3:20 AM39 °FPassing clouds.3 mph75%30.24 "HgN/A
Weather by CustomWeather, © 2015

See weather overviewHow to use our weather pages